Regional Weather Roundup
Issued by NWS

Home | Current Version | Previous Version | Graphics & Text | Print | Product List | Glossary On
Versions: 1 2 3 4 5 6 7 8 9 10 11 12 13 14 15 16 17 18 19 20 21 22 23 24 25 26 27 28 29 30 31 32 33 34 35 36 37 38 39 40 41 42 43 44 45 46 47 48 49 50
000
ASUS43 KBIS 290059
RWRND

NORTH DAKOTA REGIONAL WEATHER ROUNDUP
NATIONAL WEATHER SERVICE BISMARCK ND
700 PM CST FRI NOV 28 2014

NOTE: "FAIR" INDICATES FEW OR NO CLOUDS BELOW 12,000 FEET WITH NO
SIGNIFICANT WEATHER AND/OR OBSTRUCTIONS TO VISIBILITY.


NDZ001>003-009>011-017-290200-
NORTHWEST NORTH DAKOTA

CITY           SKY/WX    TMP DP  RH WIND       PRES   REMARKS
WILLISTON      CLOUDY    24  19  81 CALM      29.41F
MINOT          MOCLDY    11   7  84 SE7       29.49F WCI   0
MINOT AFB      MOCLDY    10   7  85 SE9       29.50F WCI  -2
$$

NDZ018>021-031>035-040>046-290200-
SOUTHWEST NORTH DAKOTA

CITY           SKY/WX    TMP DP  RH WIND       PRES   REMARKS
BISMARCK       CLOUDY    18  14  84 E7        29.54F WCI   9
GARRISON         N/A     14  11  87 SE9       29.49F WCI   2
HETTINGER ARPT PTCLDY    41  31  67 CALM      29.48F
$$

NDZ004>008-012>016-024-026-027-054-290200-
NORTHEAST NORTH DAKOTA

CITY           SKY/WX    TMP DP  RH WIND       PRES   REMARKS
GRAND FORKS    MOCLDY    15  10  80 SE9       29.71F WCI   3
DEVILS LAKE    CLOUDY    12   1  62 SE21      29.56F WCI  -6
$$

NDZ022-023-025-028>030-036>039-047>053-290200-
SOUTHEAST NORTH DAKOTA

CITY           SKY/WX    TMP DP  RH WIND       PRES   REMARKS
FARGO          PTCLDY    19  11  70 SE10      29.73F WCI   7
JAMESTOWN      CLOUDY    13   9  84 SE13      29.61F WCI  -2
$$




USA.gov is the U.S. government's official web portal to all federal, state and local government web resources and services.